STARLINK-5526, 56496

Orbit data source: Space-Track

STARLINK-5526, 56496 is a payload satellite owned by SpaceX/Seattle (US) in LEO that was launched on Wed, 10 May 2023 UTC via an FALCON 9 launch vehicle from the Air Force Western Test Range (AFWTR). Payload-class satellites include a variety of spacecraft equipped with specific instruments for various scientific and technological missions. These include communications satellites like Starlink; space stations such as the ISS; scientific satellites like the Hubble; Earth observation satellites from companies like Planet Labs, Umbra, and HawkEye 360; GPS; miniature CubeSats for education and research; and military/defense satellites.

Loading next visibility...
Identifier
56496, 2023-064BA
Orbit
LEO
Country
Flag of USUS
Related business
Manufacturer
SpaceX/Seattle
Mission
Operational Commercial Communications
Bus & Motor
STARLINK, Unknown motor
Mass
305 kg wet, ~290 kg dry
Launch date (UTC)
2023-05-10 (3 years ago)
Launch vehicle
FALCON 9
Launch site
Air Force Western Test Range (AFWTR)
Object type
Payload
Rocket body
Debris
Shape & HBR
Box + 1 Pan, 10.1 m
Radar Cross Section
11.087 m², Large (>1 m²)

Expand to show TLE details & history
Last TLE update: 2 days ago

TLE from 2 days ago
0 STARLINK-5526
1 56496U 23064BA  26171.42405895  .00000333  00000-0  35703-4 0  9990
2 56496  69.9992 205.3203 0004357 269.3169  90.7490 14.98320347171623
Epoch: 2026-06-20T10:10Z
TLE epoch observation values (Epoch: 2026-06-20T10:10:38.693Z)
Latitude
-0.00009°
Longitude
144.02016°
Altitude
574.55 km
Speed
7.574 km/s
True Right ascension
13h 41m 16s
True Declination
0° 00' 00"
Sunlit
Object was in full shadow at epoch
Visualization orbit readout
Latitude
Unknown
Longitude
Unknown
Altitude
Unknown
Speed
Unknown
Apparent Right ascension
Unknown
Apparent Declination
Unknown
Sunlit
N/A
Visualization observer readout
Local Sidereal Time
21:31:06
Azimuth
Unknown
Elevation
Unknown
Doppler factor
Unknown
Orbital elements
Apogee altitude
573.061 km
Perigee altitude
567.007 km
Semi-major axis
6,948.171 km
Eccentricity
0.00044
Inclination
69.9992°
RAAN
205.3203°
Arg. of periapsis
269.3169°
True anomaly
90.79892°
Mean anomaly
90.749°
Eccentric anomaly
90.77396°
Mean motion
3.74746 °/min
Orbital period
96.06 mins
BSTAR
0.000035703
Loading maneuver chart data...
Computing Atmospheric mass density...
Loading historical data...
Loading historical data...
Loading historical data...
Loading historical data...
Loading historical data...
Loading historical data...
Loading historical data...

Documentation

Showing up to 5 results
|